Location: Banios
(43.0451°N, 0.2335°E)
Time: 09:41:12
(UTC+00:00)

A-11 Canister half - Pass Details

Date: 21 May 2021
Orbit: 1527 x 1681 km, 47.3° (Epoch: 22 June)

Event Time Altitude Azimuth Distance (km) Brightness Sun altitude
Rises 12:26:55 0° 294° (WNW) 4,789 11.6 66.3°
Reaches altitude 10° 12:29:59 10° 293° (WNW) 3,823 11.2 66.1°
Maximum altitude 12:39:41 71° 212° (SSW) 1,717 12.3 65.5°
Drops below altitude 10° 12:49:39 10° 131° (SE) 3,919 11.3 64.6°
Sets 12:52:51 0° 129° (SE) 4,915 11.7 64.3°
